Wind from 360 at 8 knots

Air temperature 8.0° C
Dewpoint 4.0° C

Last reported at 2014-Apr-24 00:00 UTC.
Time now 2014-Apr-24 01:54 UTC

Location: N 53°19' W 132°46'.
View on Google Maps.

See reports from other nearby stations

Tides Stations Pressure Air Temp Water Temp Dewpoint Dewpoint depression Visibility Wind Speed Wind Dir Waves Ship positions

  
sailing weather and tide predictions

KINDAKUN POINT, BC weather

date/time (UTC)wind fromknots sea level pressurealtimeterstation pressurevisibilityair tempwater tempwave heightnotes
2014-Apr-24 00:00 360 8 8.0
2014-Apr-23 23:00 360 9 8.0
2014-Apr-23 22:00 360 5 8.0
2014-Apr-23 21:00 310 3 10.0
2014-Apr-23 20:00 260 3 9.0
2014-Apr-23 19:00 270 3 9.0
2014-Apr-23 18:00 9.0
2014-Apr-23 17:00 310 1 7.0
2014-Apr-23 16:00 070 1 6.0
2014-Apr-23 15:00 100 2 5.0
2014-Apr-23 14:00 140 1 5.0
2014-Apr-23 13:00 160 3 5.0
2014-Apr-23 12:00 110 3 5.0
2014-Apr-23 11:00 120 3 5.0
2014-Apr-23 10:00 120 5 4.0
2014-Apr-23 09:00 5.0
2014-Apr-23 08:00 110 1 5.0
2014-Apr-23 07:00 130 5 5.0
2014-Apr-23 06:00 100 6 6.0
2014-Apr-23 05:00 330 7 7.0
2014-Apr-23 04:00 330 9 7.0
2014-Apr-23 03:00 340 10 7.0
2014-Apr-23 02:00 330 8 7.0
2014-Apr-23 01:00 340 8 7.0
2014-Apr-23 00:00 330 7 7.0
2014-Apr-22 23:00 330 6 7.0
2014-Apr-22 22:00 300 6 8.0
2014-Apr-22 21:00 320 4 8.0
2014-Apr-22 20:00 320 4 7.0
2014-Apr-22 19:00 350 5 6.0
2014-Apr-22 18:00 340 4 6.0
2014-Apr-22 17:00 330 3 6.0
2014-Apr-22 16:00 130 2 6.0
2014-Apr-22 15:00 130 3 5.0
2014-Apr-22 14:00 100 1 4.0
2014-Apr-22 13:00 130 4 4.0
2014-Apr-22 12:00 120 5 4.0
2014-Apr-22 11:00 150 2 5.0
2014-Apr-22 10:00 120 4 5.0
2014-Apr-22 09:00 110 4 4.0
2014-Apr-22 08:00 120 4 5.0
2014-Apr-22 07:00 110 5 5.0
2014-Apr-22 06:00 110 3 5.0
2014-Apr-22 05:00 120 4 6.0
2014-Apr-22 04:00 110 5 6.0
2014-Apr-22 03:00 080 3 7.0
2014-Apr-22 02:00 080 1 7.0
2014-Apr-22 01:00 130 3 8.0